Tracking 19176 objects as of 26-May-2018
HD Live streaming from Space Station
objects crossing your sky now

COSMOS 1897

Track COSMOS 1897 now!
COSMOS 1897 is classified as:


NORAD ID: 18575
Int'l Code: 1987-096A
Perigee: 35,776.9 km
Apogee: 35,828.3 km
Inclination: 14.6 °
Period: 1,436.5 minutes
Semi major axis: 42173 km
RCS: 10 m2 (large)
Launch date: November 26, 1987
Source: Commonwealth of Independent States (former USSR) (CIS)
Launch site: TYURATAM MISSILE AND SPACE COMPLEX (TTMTR)
aabbcc
Your satellite tracking list
Your tracking list is empty




NASA's NSSDC Master Catalog

Two Line Element Set (TLE):
1 18575U 87096A   18145.51992375 -.00000276 +00000-0 +00000-0 0  9992
2 18575 014.5592 351.4566 0006094 029.9747 141.0522 01.00240333111667
Source of the keplerian elements: AFSPC